Hourly Weather Roundup
Issued by NWS

Home | Current Version | Previous Version | Text Only | Print | Product List | Glossary On
Versions: 1 2 3 4 5 6 7 8 9 10 11 12 13 14 15 16 17 18 19 20 21 22 23 24 25 26 27 28 29 30 31 32 33 34 35 36 37 38 39 40 41 42 43 44 45 46 47 48 49 50
000
NZUS43 KILX 282010
HWRCRS

NWR Hourly Weather Roundup
National Weather Service Lincoln IL
300 PM CDT TUE MAR 28 2017


CITY           SKY/WX    TMP DP  RH WIND       PRES   REMARKS
Champaign      CLOUDY    58  43  57 N10       30.09F
Lawrenceville  CLOUDY    62  50  64 NW6       30.05F
Peoria         CLOUDY    53  43  68 N8        30.12F
Springfield    CLOUDY    57  46  66 NE8       30.10F
$$


CITY           SKY/WX    TMP DP  RH WIND       PRES   REMARKS
Bloomington    CLOUDY    52  44  74 N8        30.12S
Decatur        CLOUDY    56  44  64 N10       30.10S
Effingham      CLOUDY    60  50  69 N5        30.08F HAZE
Flora          CLOUDY    60  50  68 N6        30.07S
Galesburg      CLOUDY    51  44  77 NE7       30.12S
Jacksonville   CLOUDY    55  47  74 NE9       30.10F
Lacon          CLOUDY    50  42  73 N5        30.12S
La Salle       CLOUDY    47  40  75 N9        30.14S
Lincoln        CLOUDY    53  47  79 N7        30.11F
Litchfield     CLOUDY    55  47  76 CALM      30.09S

CITY           SKY/WX    TMP DP  RH WIND       PRES   REMARKS
Macomb         CLOUDY    51  47  85 E3        30.14F
Mattoon        CLOUDY    57  47  69 N10       30.07S
Moline         CLOUDY    52  41  66 NE6       30.12F
Olney          CLOUDY    59  52  77 NW5       30.06F
Paris          CLOUDY    57  48  71 N5        30.09R
Pontiac        CLOUDY    51  45  80 N9        30.13S
Quincy         CLOUDY    53  48  83 NE8       30.09F
Rantoul        CLOUDY    56  45  68 N13       30.10S
Robinson       CLOUDY    60  50  68 N3        30.07R
Taylorville    CLOUDY    55  48  76 N9        30.09F
Terre Haute    CLOUDY    60  47  61 N7        30.06S
$$


CITY           SKY/WX    TMP DP  RH WIND       PRES   REMARKS
Burlington     CLOUDY    51  47  86 E6        30.11F
Chicago        PTSUNNY   50  38  63 NE12      30.13S
Des Moines     CLOUDY    51  42  71 NE8       30.10F
Evansville     CLOUDY    61  51  70 N5        30.06S
Indianapolis   CLOUDY    57  47  69 NW9       30.06R
Kansas City    CLOUDY    54  49  83 E9        30.03F
Milwaukee      MOSUNNY   43  36  76 NE9       30.16S
St Louis       CLOUDY    58  48  69 NE5       30.08F
$$





USA.gov is the U.S. government's official web portal to all federal, state and local government web resources and services.